{"data":{"norad_id":64423,"intl_designator":"2025-129M","name":"STARLINK-34467","alt_names":[],"object_type":"PAYLOAD","status":"ACTIVE","operator":null,"country":"US","launch_date":"2025-06-17","launch_site_code":"AFWTR","launch_vehicle":null,"mission":null,"orbit_class":"UNKNOWN","rcs_meters":null,"size_class":null,"mass_kg":null,"dimensions":null,"purposes":["comms"],"wikipedia_slug":null,"has_3d_model":false,"image_url":null,"decayed_at":null,"tle_current":{"epoch":"2026-09-20T19:22:30.850464Z","epoch_age_seconds":107834,"freshness":"FRESH","line1":"1 64423U 25129M   26263.80730151  .00007773  00000+0  27441-3 0  9996","line2":"2 64423  70.0005 300.1198 0003493 268.0269  92.0506 15.29598589 70579","mean_motion":15.29598589,"eccentricity":0.0003493,"inclination_deg":70.0005,"raan_deg":300.1198,"arg_perigee_deg":268.0269,"mean_anomaly_deg":92.0506,"bstar":0.00027441,"rev_number":7057,"period_min":94.142346257094,"perigee_km":474.61685927756,"apogee_km":479.40586592367,"semimajor_km":6855.1483626006,"source":"CELESTRAK","updated_at":"2026-09-21T09:00:35.348059Z"}}}